Weather in Zinovyevo

Russia / Vladimir Oblast     56°09′18″N   39°25′10″E
temp.,
°C
wind,
m/s
gust,
m/s
humid.,
%
clouds,
%
prec.,
mm/h
press.,
hPa
HPBL,
m
14 june, mon
mon1400:00+14ssw229513 0.0 101024
03:00+13ssw23960 0.0 101145
06:00+15sw24910 0.0 1012110
09:00+21ssw23640 0.0 1014642
12:00+25ssw12489 0.2 10141814
15:00+22wsw126999 0.2 101442
18:00+21ssw1172100 0.0 101411
21:00+19ssw1172100 0.0 101411
15 june, tue
tue1500:00+18s1176100 0.0 101411
03:00+17sw118494 0.0 101411
06:00+19sw128342 0.0 101481
09:00+23wsw22662 0.4 1013528
12:00+23sw12723 3.6 1013685
15:00+25wsw23533 4.1 10111354
18:00+23s24715 0.7 1010219
21:00+18w118993 1.2 101011
16 june, wed
wed1600:00+16wsw119499 1.1 100911
03:00+16wnw1196100 1.4 100915
06:00+17nw2698100 1.6 1010203
09:00+19nnw597259 2.2 1010612
12:00+21n686331 0.0 10121111
15:00+20n586537 0.3 10141410
18:00+20n47606 0.1 10151528
21:00+14nw2282100 0.1 101721
17 june, thu
thu1700:00+12nnw39773 0.0 1019175
03:00+10nnw36695 0.0 1021113
06:00+13nw25695 0.0 1022127
09:00+18nnw35500 0.0 1023698
12:00+21n36450 0.0 10241680
15:00+22nnw364248 0.0 10232247
18:00+21nnw35554 0.0 1024963
21:00+15nw22825 0.0 102415
18 june, fri
fri1800:00+13nw11825 0.0 102510
03:00+13w22810 0.0 102715
06:00+15nw13750 0.0 102782
09:00+22w23540 0.0 1027587
12:00+25wnw23430 0.0 10261745
15:00+26wnw23415 0.0 10251897
18:00+25nw24575 0.0 1025471
21:00+18wsw227722 0.0 102512